Regional Weather Roundup
Issued by NWS

Home | Current Version | Previous Version | Graphics & Text | Print | Product List | Glossary On
Versions: 1 2 3 4 5 6 7 8 9 10 11 12 13 14 15 16 17 18 19 20 21 22 23 24 25 26 27 28 29 30 31 32 33 34 35 36 37 38 39 40 41 42 43 44 45 46 47 48 49 50
000
ASUS43 KBIS 200202
RWRND

NORTH DAKOTA REGIONAL WEATHER ROUNDUP
NATIONAL WEATHER SERVICE BISMARCK ND
800 PM CST THU JAN 19 2017

NOTE: "FAIR" INDICATES FEW OR NO CLOUDS BELOW 12,000 FEET WITH NO
SIGNIFICANT WEATHER AND/OR OBSTRUCTIONS TO VISIBILITY.


NDZ001>003-009>011-017-200300-
NORTHWEST NORTH DAKOTA

CITY           SKY/WX    TMP DP  RH WIND       PRES   REMARKS
WILLISTON      FAIR      16  13  88 CALM      29.45S
MINOT          FAIR      29  25  85 SW6       29.43F
MINOT AFB      CLOUDY    22  20  91 CALM      29.42F
$$

NDZ018>021-031>035-040>046-200300-
SOUTHWEST NORTH DAKOTA

CITY           SKY/WX    TMP DP  RH WIND       PRES   REMARKS
BISMARCK       FAIR      12   5  73 E3        29.49F
DICKINSON      FAIR      22  17  81 W9        29.42S WCI  12
GARRISON         N/A     17  14  88 CALM      29.45S
HETTINGER ARPT CLOUDY    17  13  84 NW5       29.45F WCI  10
$$

NDZ004>008-012>016-024-026-027-054-200300-
NORTHEAST NORTH DAKOTA

CITY           SKY/WX    TMP DP  RH WIND       PRES   REMARKS
GRAND FORKS    CLOUDY    33  30  88 S15       29.55S FOG
GRND FRKS AFB  CLOUDY    34  34  99 S15       29.54S FOG
DEVILS LAKE    FAIR      21  20  96 SE10      29.50S WCI  10
$$

NDZ022-023-025-028>030-036>039-047>053-200300-
SOUTHEAST NORTH DAKOTA

CITY           SKY/WX    TMP DP  RH WIND       PRES   REMARKS
FARGO          FOG       36  35  96 S20G28    29.60S VSB 3/4
JAMESTOWN      FOG       31  31 100 S18       29.51F VSB 3/4 WCI  19
$$





USA.gov is the U.S. government's official web portal to all federal, state and local government web resources and services.